Weather History for Middlebury State AP, Middlebu, VT

Change the Weather History Date:

Monday, April 7, 2014

  Actual Average (KMPV) Record (KMPV)
Temperature  
Mean Temperature 44 °F 39 °F  
Max Temperature 57 °F 49 °F 81 °F (2010)
Min Temperature 30 °F 28 °F 9 °F (1982)
Degree Days  
Heating Degree Days 22 26  
Month to date heating degree days 194  
Since 1 July heating degree days 7219  
Cooling Degree Days 0 0  
Month to date cooling degree days 0  
Year to date cooling degree days 0  
Moisture  
Dew Point 28 °F    
Average Humidity 57    
Maximum Humidity 95    
Minimum Humidity 25    
Precipitation  
Precipitation 0.02 in 0.08 in 0.68 in (1962)
Month to date precipitation 0.59  
Year to date precipitation 7.47  
Sea Level Pressure  
Sea Level Pressure 30.06 in    
Wind  
Wind Speed 3 mph (ESE)    
Max Wind Speed 20 mph    
Max Gust Speed 30 mph    
Visibility 10 miles    
Events Rain    
T = Trace of Precipitation, MM = Missing Value Source: NWS Daily Summary

Daily Weather History Graph

Daily Weather History Graph

Search for Another Location

Airport:

Trip Planner

Search our weather history database for the weather conditions in past years. The results will help you decide how hot, cold, wet, or windy it might be!

Date:

Astronomy

Apr. 07, 2014 Rise Set
Actual Time 6:23 AM EDT 7:26 PM EDT
Civil Twilight 5:53 AM EDT 7:56 PM EDT
Nautical Twilight 5:18 AM EDT 8:31 PM EDT
Astronomical Twilight 4:41 AM EDT 9:08 PM EDT
Moon 12:11 PM EDT (4/7) 2:07 AM EDT (4/7)
Length of Visible Light 14h 02m
Length of Day
13h 03m
First Quarter, 53% of the Moon is Illuminated
Apr 7
First Quarter
Apr 15
Full
Apr 22
Last Quarter
Apr 29
New
May 6
First Quarter

Hourly Weather History & Observations

Time (EDT) Temp. Windchill Dew Point Humidity Pressure Visibility Wind Dir Wind Speed Gust Speed Precip Events Conditions
12:15 AM 36.3 °F - 29.1 °F 75% 30.15 in 10.0 mi Calm Calm - N/A   Clear
12:35 AM 34.5 °F 31.6 °F 29.3 °F 81% 30.15 in 10.0 mi ENE 3.5 mph - N/A   Clear
12:55 AM 34.7 °F 31.8 °F 28.9 °F 79% 30.15 in 10.0 mi East 3.5 mph - N/A   Clear
1:15 AM 34.7 °F - 29.1 °F 80% 30.16 in 10.0 mi Calm Calm - N/A   Clear
1:35 AM 34.3 °F - 29.1 °F 81% 30.16 in 10.0 mi Calm Calm - N/A   Clear
1:55 AM 34.2 °F - 29.1 °F 82% 30.15 in 10.0 mi Calm Calm - N/A   Clear
2:15 AM 33.3 °F 30.2 °F 29.5 °F 86% 30.15 in 10.0 mi East 3.5 mph - N/A   Clear
2:35 AM 34.0 °F - 28.4 °F 80% 30.16 in 10.0 mi Calm Calm - N/A   Clear
2:55 AM 33.8 °F 30.8 °F 29.1 °F 83% 30.16 in 10.0 mi East 3.5 mph - N/A   Clear
3:15 AM 33.1 °F - 27.9 °F 81% 30.16 in 10.0 mi Calm Calm - N/A   Clear
3:35 AM 32.7 °F - 28.4 °F 84% 30.16 in 10.0 mi Calm Calm - N/A   Clear
3:55 AM 32.0 °F - 29.7 °F 91% 30.16 in 10.0 mi Calm Calm - N/A   Clear
4:15 AM 33.6 °F - 28.4 °F 81% 30.16 in 10.0 mi Calm Calm - N/A   Clear
4:35 AM 32.9 °F - 27.1 °F 79% 30.16 in 10.0 mi Calm Calm - N/A   Clear
4:55 AM 31.8 °F - 27.1 °F 83% 30.16 in 10.0 mi Calm Calm - N/A   Clear
5:15 AM 31.8 °F - 27.5 °F 84% 30.16 in 10.0 mi Calm Calm - N/A   Clear
5:35 AM 31.5 °F - 28.0 °F 87% 30.15 in 10.0 mi Calm Calm - N/A   Clear
5:55 AM 31.3 °F - 27.7 °F 87% 30.15 in 10.0 mi Calm Calm - N/A   Clear
6:15 AM 31.5 °F - 27.5 °F 85% 30.15 in 10.0 mi Calm Calm - N/A   Clear
6:35 AM 30.9 °F - 27.3 °F 86% 30.16 in 10.0 mi Calm Calm - N/A   Clear
6:55 AM 30.2 °F - 28.2 °F 92% 30.16 in 10.0 mi Calm Calm - N/A   Clear
7:15 AM 31.1 °F - 27.5 °F 87% 30.16 in 10.0 mi Calm Calm - N/A   Clear
7:35 AM 31.6 °F - 27.3 °F 84% 30.16 in 10.0 mi Calm Calm - N/A   Clear
8:15 AM 36.5 °F - 30.0 °F 77% 30.16 in 10.0 mi Calm Calm - N/A   Clear
8:35 AM 42.3 °F - 28.8 °F 59% 30.16 in 10.0 mi Calm Calm - N/A   Clear
8:55 AM 43.7 °F - 29.7 °F 58% 30.16 in 10.0 mi Calm Calm - N/A   Clear
9:15 AM 45.0 °F - 26.4 °F 48% 30.16 in 10.0 mi Calm Calm - N/A   Clear
9:35 AM 46.8 °F - 27.1 °F 46% 30.15 in 10.0 mi Calm Calm - N/A   Clear
9:55 AM 49.3 °F - 27.1 °F 42% 30.15 in 10.0 mi Calm Calm - N/A   Clear
10:15 AM 51.1 °F - 28.4 °F 42% 30.13 in 10.0 mi Calm Calm - N/A   Clear
10:35 AM 51.8 °F - 29.7 °F 43% 30.13 in 10.0 mi West 3.5 mph - N/A   Clear
10:55 AM 52.9 °F - 30.4 °F 42% 30.13 in 10.0 mi Calm Calm - N/A   Clear
11:15 AM 54.3 °F - 29.5 °F 39% 30.12 in 10.0 mi WSW 3.5 mph - N/A   Clear
11:55 AM 56.7 °F - 28.4 °F 34% 30.10 in 10.0 mi South 3.5 mph - N/A   Clear
12:15 PM 57.0 °F - 29.8 °F 36% 30.10 in 10.0 mi South 3.5 mph - N/A   Clear
12:35 PM 56.7 °F - 30.6 °F 37% 30.09 in 10.0 mi SE 4.6 mph - N/A   Clear
12:55 PM 56.5 °F - 29.5 °F 36% 30.09 in 10.0 mi SE 6.9 mph - N/A   Clear
1:15 PM 56.5 °F - 28.8 °F 35% 30.08 in 10.0 mi ESE 5.8 mph - N/A   Clear
1:35 PM 56.7 °F - 27.1 °F 32% 30.07 in 10.0 mi SSE 3.5 mph - N/A   Clear
1:55 PM 56.3 °F - 26.8 °F 32% 30.07 in 10.0 mi South 3.5 mph - N/A   Clear
2:15 PM 55.9 °F - 26.8 °F 33% 30.05 in 10.0 mi SSE 3.5 mph - N/A   Clear
2:35 PM 55.4 °F - 26.4 °F 33% 30.04 in 10.0 mi Calm Calm - N/A   Clear
2:55 PM 55.6 °F - 27.1 °F 34% 30.02 in 10.0 mi Calm Calm - N/A   Clear
3:15 PM 56.8 °F - 25.0 °F 29% 30.03 in 10.0 mi SE 5.8 mph - N/A   Clear
3:35 PM 56.7 °F - 23.7 °F 28% 30.03 in 10.0 mi SE 10.4 mph - N/A   Clear
3:55 PM 56.7 °F - 23.9 °F 28% 30.01 in 10.0 mi SE 11.5 mph - N/A   Clear
4:15 PM 56.5 °F - 22.8 °F 27% 30.00 in 10.0 mi ESE 11.5 mph - N/A   Clear
4:35 PM 56.1 °F - 22.6 °F 27% 30.00 in 10.0 mi SE 10.4 mph - N/A   Clear
4:55 PM 55.8 °F - 21.0 °F 26% 30.00 in 10.0 mi East 11.5 mph 21.9 mph N/A   Clear
5:15 PM 55.8 °F - 20.5 °F 25% 30.00 in 10.0 mi ESE 11.5 mph 16.1 mph N/A   Clear
5:35 PM 55.4 °F - 22.1 °F 27% 29.99 in 10.0 mi ESE 11.5 mph - N/A   Clear
5:55 PM 54.7 °F - 22.5 °F 29% 29.98 in 10.0 mi ESE 13.8 mph 21.9 mph N/A   Mostly Cloudy
6:15 PM 54.5 °F - 22.5 °F 29% 29.98 in 10.0 mi ESE 10.4 mph - N/A   Overcast
6:35 PM 53.8 °F - 22.6 °F 30% 29.98 in 10.0 mi ESE 10.4 mph 16.1 mph N/A   Mostly Cloudy
6:55 PM 54.0 °F - 24.4 °F 32% 29.95 in 10.0 mi East 5.8 mph - N/A   Mostly Cloudy
7:15 PM 53.4 °F - 25.9 °F 34% 29.94 in 10.0 mi ESE 8.1 mph - N/A   Overcast
7:35 PM 54.7 °F - 25.9 °F 33% 29.93 in 10.0 mi ESE 6.9 mph - N/A   Overcast
7:55 PM 53.6 °F - 26.4 °F 35% 29.94 in 10.0 mi ESE 16.1 mph 24.2 mph N/A   Overcast
8:15 PM 52.7 °F - 26.6 °F 36% 29.95 in 10.0 mi ESE 19.6 mph 29.9 mph N/A   Overcast
8:35 PM 52.0 °F - 26.8 °F 38% 29.94 in 10.0 mi ESE 12.7 mph - N/A   Overcast
8:55 PM 51.4 °F - 27.1 °F 39% 29.92 in 10.0 mi East 9.2 mph 20.7 mph N/A   Overcast
9:15 PM 51.1 °F - 28.8 °F 42% 29.92 in 10.0 mi East 11.5 mph 26.5 mph N/A Rain Rain
9:35 PM 46.6 °F - 35.1 °F 64% 29.94 in 10.0 mi East 12.7 mph 20.7 mph N/A Rain Light Rain
10:15 PM 41.7 °F 38.8 °F 40.1 °F 94% 29.91 in 7.0 mi East 4.6 mph - N/A Rain Light Rain
10:35 PM 42.4 °F 38.8 °F 36.5 °F 79% 29.89 in 10.0 mi ESE 5.8 mph - N/A   Overcast
10:55 PM 41.2 °F 36.6 °F 37.9 °F 88% 29.87 in 10.0 mi ESE 6.9 mph - 0.01 in Rain Light Rain
11:15 PM 41.0 °F 39.0 °F 37.6 °F 88% 29.84 in 10.0 mi ESE 3.5 mph - 0.01 in Rain Rain
11:35 PM 40.1 °F - 38.8 °F 95% 29.81 in 10.0 mi Calm Calm - 0.01 in Rain Rain
11:55 PM 41.9 °F 35.9 °F 36.3 °F 81% 29.77 in 10.0 mi East 10.4 mph 17.3 mph 0.01 in Rain Light Rain